CST,Max TemperatureF,Mean TemperatureF,Min TemperatureF,Max Dew PointF,MeanDew PointF,Min DewpointF,Max Humidity, Mean Humidity, Min Humidity, Max Sea Level PressureIn, Mean Sea Level PressureIn, Min Sea Level PressureIn, Max VisibilityMiles, Mean VisibilityMiles, Min VisibilityMiles, Max Wind SpeedMPH, Mean Wind SpeedMPH, Max Gust SpeedMPH,PrecipitationIn, CloudCover, Events, WindDirDegrees
2011-1-1,30,16,3,27,0,-9,86,68,52,30.00,29.69,29.53,10,8,1,25,18,36,0.00,6,Snow,238
2011-1-2,15,8,0,8,0,-5,79,68,49,30.10,30.05,29.90,10,10,6,13,8,,0.00,3,Snow,237
2011-1-3,19,16,12,16,13,8,92,82,71,30.04,29.93,29.82,10,5,1,8,2,,0.00,8,Snow,304
2011-1-4,17,8,-2,14,2,-6,86,75,56,30.06,29.98,29.82,10,8,2,16,11,,0.00,3,Snow,281
2011-1-5,18,6,-6,13,7,-11,85,80,73,30.01,29.80,29.70,8,4,1,15,4,,0.00,6,Snow,208
2011-1-6,16,12,7,10,4,-1,85,75,67,29.78,29.70,29.60,10,8,4,15,10,,0.00,4,Snow,308
2011-1-7,10,6,3,5,2,-1,84,74,64,29.64,29.46,29.34,10,6,1,20,11,24,0.00,7,Snow,311
2011-1-8,14,8,0,3,-1,-6,80,71,62,30.17,29.94,29.58,10,10,7,21,16,28,0.00,1,,322
2011-1-9,19,7,-5,9,1,-10,87,78,60,30.43,30.34,30.18,10,9,7,8,4,,0.00,0,,327
2011-1-10,21,12,3,16,9,0,86,73,63,30.49,30.40,30.29,10,8,1,9,5,,0.00,5,Snow,73
2011-1-11,25,22,19,19,16,15,86,82,74,30.34,30.23,30.13,10,4,1,12,8,,0.00,7,Snow,23
2011-1-12,24,22,19,17,14,9,86,73,60,30.52,30.43,30.26,10,9,2,16,12,,0.00,8,Snow,336
2011-1-13,19,14,10,16,13,6,93,82,68,30.51,30.32,30.16,10,4,1,12,4,,0.00,7,Snow,155
2011-1-14,18,16,14,14,11,9,88,81,71,30.28,30.10,29.90,6,2,1,8,4,,0.13,7,Snow,247
2011-1-15,19,8,-2,12,6,-6,86,75,62,30.32,30.11,29.88,10,8,2,17,11,,0.00,4,Snow,326
2011-1-16,10,3,-4,3,-2,-9,85,74,64,30.35,30.24,30.04,10,9,2,14,5,,0.00,6,Snow,278
2011-1-17,24,17,10,20,13,3,88,83,73,30.01,29.70,29.53,10,3,0,17,11,24,0.02,8,Fog-Snow,158
2011-1-18,21,14,7,15,6,-1,78,67,53,30.12,29.97,29.75,10,9,4,14,10,21,0.00,5,Snow,14
2011-1-19,12,8,1,3,1,-3,80,72,61,30.18,30.12,30.04,10,9,2,10,6,,0.00,5,Snow,320
2011-1-20,6,-1,-9,-2,-7,-18,83,73,62,30.18,30.04,29.89,10,8,1,18,9,28,0.00,2,Snow,278
2011-1-21,1,-8,-18,-6,-15,-24,78,66,54,30.15,30.03,29.79,10,8,2,12,7,,0.00,3,Snow,256
2011-1-22,3,0,-2,-4,-7,-12,79,70,55,30.22,29.92,29.72,10,8,2,14,9,,0.00,5,Snow,292
2011-1-23,10,0,-9,0,-6,-13,95,68,51,30.32,30.20,29.96,10,10,9,13,5,,0.00,1,,141
2011-1-24,21,14,8,18,11,1,92,80,70,30.03,29.91,29.83,10,5,1,14,9,21,0.00,8,Snow,210
2011-1-25,24,22,18,16,15,13,86,79,69,30.11,30.03,29.95,8,5,3,13,7,,0.00,8,,268
2011-1-26,21,18,15,15,12,9,84,79,71,30.10,30.03,29.91,10,8,5,13,8,,0.00,8,,292
2011-1-27,23,19,17,20,16,14,93,86,80,29.89,29.80,29.73,7,4,1,12,6,,0.02,8,Snow,262
2011-1-28,26,20,15,25,20,12,100,86,69,29.91,29.75,29.63,10,4,1,13,7,,0.00,8,Rain-Snow,164
2011-1-29,26,24,21,25,20,18,93,87,80,30.15,29.88,29.63,9,5,2,8,3,,0.00,8,Snow,46
2011-1-30,24,20,15,18,13,7,89,75,57,30.48,30.32,30.10,10,10,7,12,6,,0.00,8,,42
2011-1-31,16,13,10,11,9,6,86,80,65,30.49,30.37,30.29,10,2,1,14,10,,0.01,8,Snow,65